Time,TemperatureF,DewpointF,PressureIn,WindDirection,WindDirectionDegrees,WindSpeedMPH,WindSpeedGustMPH,Humidity,HourlyPrecipIn,Conditions,Clouds,dailyrainin,SoftwareType,DateUTC
2014-08-22 00:02:00,80.8,75.8,30.06,SSE,158,0.0,0.0,85,0.00,,SKC,0.00,VWS V14.01,2014-08-22 05:02:00,
2014-08-22 00:07:00,80.6,75.7,30.06,SSE,158,0.0,0.0,85,0.00,,SKC,0.00,VWS V14.01,2014-08-22 05:07:00,
2014-08-22 00:12:00,80.6,75.7,30.06,SE,135,0.0,0.0,85,0.00,,SKC,0.00,VWS V14.01,2014-08-22 05:12:00,
2014-08-22 00:17:00,80.6,75.7,30.06,SSE,158,0.0,0.0,85,0.00,,SKC,0.00,VWS V14.01,2014-08-22 05:17:00,
2014-08-22 00:22:00,80.4,75.5,30.06,SE,135,0.0,0.0,85,0.00,,SKC,0.00,VWS V14.01,2014-08-22 05:22:00,
2014-08-22 00:27:00,80.6,75.7,30.06,South,180,0.0,0.0,85,0.00,,SKC,0.00,VWS V14.01,2014-08-22 05:27:00,
2014-08-22 00:32:00,80.6,75.7,30.06,SSE,158,0.0,0.0,85,0.00,,SKC,0.00,VWS V14.01,2014-08-22 05:32:00,
2014-08-22 00:37:00,80.2,75.7,30.06,SSE,158,0.0,0.0,86,0.00,,SKC,0.00,VWS V14.01,2014-08-22 05:37:00,
2014-08-22 00:42:00,80.1,75.5,30.06,SSE,158,0.0,0.0,86,0.00,,SKC,0.00,VWS V14.01,2014-08-22 05:42:00,
2014-08-22 00:47:00,80.1,75.5,30.03,SSE,158,0.0,0.0,86,0.00,,SKC,0.00,VWS V14.01,2014-08-22 05:47:00,
2014-08-22 00:52:00,80.2,75.7,30.03,SSE,158,0.0,0.0,86,0.00,,SKC,0.00,VWS V14.01,2014-08-22 05:52:00,
2014-08-22 00:57:00,80.2,75.7,30.03,SSE,158,0.0,0.0,86,0.00,,SKC,0.00,VWS V14.01,2014-08-22 05:57:00,
2014-08-22 01:02:00,80.1,75.2,30.03,SSE,158,0.0,0.0,85,0.00,,SKC,0.00,VWS V14.01,2014-08-22 06:02:00,
2014-08-22 01:07:00,80.2,75.3,30.03,SE,135,0.0,0.0,85,0.00,,SKC,0.00,VWS V14.01,2014-08-22 06:07:00,
2014-08-22 01:12:00,80.4,75.5,30.03,SSE,158,0.0,0.0,85,0.00,,SKC,0.00,VWS V14.01,2014-08-22 06:12:00,
2014-08-22 01:17:00,80.4,75.2,30.06,South,180,0.0,0.0,84,0.00,,SKC,0.00,VWS V14.01,2014-08-22 06:17:00,
2014-08-22 01:22:00,80.2,75.0,30.06,SSE,158,0.0,0.0,84,0.00,,SKC,0.00,VWS V14.01,2014-08-22 06:22:00,
2014-08-22 01:27:00,80.2,75.0,30.06,SSE,158,0.0,0.0,84,0.00,,SKC,0.00,VWS V14.01,2014-08-22 06:27:00,
2014-08-22 01:32:00,80.1,74.8,30.03,SSE,158,0.0,0.0,84,0.00,,SKC,0.00,VWS V14.01,2014-08-22 06:32:00,
2014-08-22 01:37:00,80.1,74.8,30.03,South,180,0.0,0.0,84,0.00,,SKC,0.00,VWS V14.01,2014-08-22 06:37:00,
2014-08-22 01:42:00,80.1,74.4,30.03,SE,135,0.0,0.0,83,0.00,,SKC,0.00,VWS V14.01,2014-08-22 06:42:00,
2014-08-22 01:47:00,79.9,74.3,30.06,ENE,68,0.0,0.0,83,0.00,,SKC,0.00,VWS V14.01,2014-08-22 06:47:00,
2014-08-22 01:52:00,79.9,73.9,30.06,SE,135,0.0,0.0,82,0.00,,SKC,0.00,VWS V14.01,2014-08-22 06:52:00,
2014-08-22 01:57:00,79.7,73.7,30.06,SE,135,0.0,0.0,82,0.00,,SKC,0.00,VWS V14.01,2014-08-22 06:57:00,
2014-08-22 02:02:00,79.5,73.6,30.06,South,180,0.0,0.0,82,0.00,,SKC,0.00,VWS V14.01,2014-08-22 07:02:00,
2014-08-22 02:07:00,79.5,73.6,30.06,ESE,112,0.0,0.0,82,0.00,,SKC,0.00,VWS V14.01,2014-08-22 07:07:00,
2014-08-22 02:12:00,79.3,73.0,30.06,SE,135,0.0,0.0,81,0.00,,SKC,0.00,VWS V14.01,2014-08-22 07:12:00,
2014-08-22 02:17:00,79.3,72.6,30.06,SE,135,0.0,0.0,80,0.00,,SKC,0.00,VWS V14.01,2014-08-22 07:17:00,
2014-08-22 02:23:00,79.3,72.6,30.06,South,180,0.0,0.0,80,0.00,,SKC,0.00,VWS V14.01,2014-08-22 07:23:00,
2014-08-22 02:28:00,79.3,72.3,30.06,WNW,292,0.0,0.0,79,0.00,,SKC,0.00,VWS V14.01,2014-08-22 07:28:00,
2014-08-22 02:33:00,79.3,72.3,30.06,WNW,292,0.0,0.0,79,0.00,,SKC,0.00,VWS V14.01,2014-08-22 07:33:00,
2014-08-22 02:38:00,79.5,72.1,30.06,SSE,158,0.0,0.0,78,0.00,,SKC,0.00,VWS V14.01,2014-08-22 07:38:00,
2014-08-22 02:43:00,79.9,71.6,30.06,SE,135,0.0,0.0,76,0.00,,SKC,0.00,VWS V14.01,2014-08-22 07:43:00,
2014-08-22 02:48:00,79.9,71.6,30.06,SSW,202,0.0,0.0,76,0.00,,SKC,0.00,VWS V14.01,2014-08-22 07:48:00,
2014-08-22 02:53:00,79.7,71.5,30.06,SE,135,0.0,0.0,76,0.00,,SKC,0.00,VWS V14.01,2014-08-22 07:53:00,
2014-08-22 02:58:00,79.9,70.9,30.06,ESE,112,0.0,0.0,74,0.00,,SKC,0.00,VWS V14.01,2014-08-22 07:58:00,
2014-08-22 03:03:00,79.7,71.1,30.06,ESE,112,0.0,0.0,75,0.00,,SKC,0.00,VWS V14.01,2014-08-22 08:03:00,
2014-08-22 03:08:00,79.5,70.9,30.06,SSE,158,0.0,0.0,75,0.00,,SKC,0.00,VWS V14.01,2014-08-22 08:08:00,
2014-08-22 03:13:00,79.5,70.5,30.06,SSE,158,0.0,0.0,74,0.00,,SKC,0.00,VWS V14.01,2014-08-22 08:13:00,
2014-08-22 03:18:00,79.7,70.7,30.06,SE,135,0.0,0.0,74,0.00,,SKC,0.00,VWS V14.01,2014-08-22 08:18:00,
2014-08-22 03:23:00,79.3,70.7,30.06,ESE,112,0.0,0.0,75,0.00,,SKC,0.00,VWS V14.01,2014-08-22 08:23:00,
2014-08-22 03:28:00,79.0,70.4,30.06,SSE,158,0.0,0.0,75,0.00,,SKC,0.00,VWS V14.01,2014-08-22 08:28:00,
2014-08-22 03:33:00,79.0,70.4,30.06,SE,135,0.0,0.0,75,0.00,,SKC,0.00,VWS V14.01,2014-08-22 08:33:00,
2014-08-22 03:38:00,78.8,70.6,30.06,East,90,0.0,0.0,76,0.00,,SKC,0.00,VWS V14.01,2014-08-22 08:38:00,
2014-08-22 03:43:00,78.6,70.4,30.06,South,180,0.0,0.0,76,0.00,,SKC,0.00,VWS V14.01,2014-08-22 08:43:00,
2014-08-22 03:48:00,78.3,70.5,30.06,South,180,0.0,0.0,77,0.00,,SKC,0.00,VWS V14.01,2014-08-22 08:48:00,
2014-08-22 03:53:00,78.3,70.5,30.06,SSE,158,0.0,0.0,77,0.00,,SKC,0.00,VWS V14.01,2014-08-22 08:53:00,
2014-08-22 03:58:00,78.3,70.5,30.06,SE,135,0.0,0.0,77,0.00,,SKC,0.00,VWS V14.01,2014-08-22 08:58:00,
2014-08-22 04:03:00,78.3,70.5,30.06,SSW,202,0.0,0.0,77,0.00,,SKC,0.00,VWS V14.01,2014-08-22 09:03:00,
2014-08-22 04:08:00,77.7,70.3,30.06,South,180,0.0,0.0,78,0.00,,SKC,0.00,VWS V14.01,2014-08-22 09:08:00,
2014-08-22 04:13:00,77.5,70.1,30.06,ESE,112,0.0,0.0,78,0.00,,SKC,0.00,VWS V14.01,2014-08-22 09:13:00,
2014-08-22 04:18:00,77.4,70.3,30.06,ESE,112,0.0,0.0,79,0.00,,SKC,0.00,VWS V14.01,2014-08-22 09:18:00,
2014-08-22 04:23:00,77.7,70.7,30.06,SE,135,0.0,0.0,79,0.00,,SKC,0.00,VWS V14.01,2014-08-22 09:23:00,
2014-08-22 04:28:00,77.4,70.3,30.06,SSE,158,0.0,0.0,79,0.00,,SKC,0.00,VWS V14.01,2014-08-22 09:28:00,
2014-08-22 04:33:00,77.2,70.2,30.06,SSE,158,0.0,0.0,79,0.00,,SKC,0.00,VWS V14.01,2014-08-22 09:33:00,
2014-08-22 04:38:00,77.0,70.4,30.06,SSE,158,0.0,0.0,80,0.00,,SKC,0.00,VWS V14.01,2014-08-22 09:38:00,
2014-08-22 04:43:00,77.2,70.5,30.06,SW,225,0.0,0.0,80,0.00,,SKC,0.00,VWS V14.01,2014-08-22 09:43:00,
2014-08-22 04:48:00,77.0,70.4,30.06,East,90,0.0,0.0,80,0.00,,SKC,0.00,VWS V14.01,2014-08-22 09:48:00,
2014-08-22 04:53:00,77.2,70.5,30.06,East,90,0.0,0.0,80,0.00,,SKC,0.00,VWS V14.01,2014-08-22 09:53:00,
2014-08-22 04:58:00,77.2,70.5,30.06,East,90,0.0,0.0,80,0.00,,SKC,0.00,VWS V14.01,2014-08-22 09:58:00,
2014-08-22 05:03:00,77.0,70.4,30.03,ESE,112,0.0,0.0,80,0.00,,SKC,0.00,VWS V14.01,2014-08-22 10:03:00,
2014-08-22 05:08:00,77.0,70.4,30.03,SSE,158,0.0,0.0,80,0.00,,SKC,0.00,VWS V14.01,2014-08-22 10:08:00,
2014-08-22 05:13:00,76.8,70.6,30.06,SSW,202,0.0,0.0,81,0.00,,SKC,0.00,VWS V14.01,2014-08-22 10:13:00,
2014-08-22 05:18:00,77.0,70.7,30.06,ESE,112,0.0,0.0,81,0.00,,SKC,0.00,VWS V14.01,2014-08-22 10:18:00,
2014-08-22 05:23:00,77.2,70.9,30.06,East,90,0.0,0.0,81,0.00,,SKC,0.00,VWS V14.01,2014-08-22 10:23:00,
2014-08-22 05:28:00,77.0,70.7,30.06,East,90,0.0,0.0,81,0.00,,SKC,0.00,VWS V14.01,2014-08-22 10:28:00,
2014-08-22 05:33:00,77.0,70.7,30.06,East,90,0.0,0.0,81,0.00,,SKC,0.00,VWS V14.01,2014-08-22 10:33:00,
2014-08-22 05:38:00,77.0,70.7,30.06,East,90,0.0,0.0,81,0.00,,SKC,0.00,VWS V14.01,2014-08-22 10:38:00,
2014-08-22 05:43:00,77.0,70.7,30.06,East,90,0.0,0.0,81,0.00,,SKC,0.00,VWS V14.01,2014-08-22 10:43:00,
2014-08-22 05:48:00,77.0,70.7,30.06,East,90,0.0,0.0,81,0.00,,SKC,0.00,VWS V14.01,2014-08-22 10:48:00,
2014-08-22 05:53:00,76.6,70.7,30.06,East,90,0.0,0.0,82,0.00,,SKC,0.00,VWS V14.01,2014-08-22 10:53:00,
2014-08-22 05:58:00,76.3,70.7,30.06,SSE,158,0.0,0.0,83,0.00,,SKC,0.00,VWS V14.01,2014-08-22 10:58:00,
2014-08-22 06:03:00,76.3,70.7,30.06,SSE,158,0.0,0.0,83,0.00,,SKC,0.00,VWS V14.01,2014-08-22 11:03:00,
2014-08-22 06:08:00,76.3,70.7,30.06,SSE,158,0.0,0.0,83,0.00,,SKC,0.00,VWS V14.01,2014-08-22 11:08:00,
2014-08-22 06:13:00,76.3,70.7,30.06,SSE,158,0.0,0.0,83,0.00,,SKC,0.00,VWS V14.01,2014-08-22 11:13:00,
2014-08-22 06:18:00,75.6,70.7,30.06,SSE,158,0.0,0.0,85,0.00,,SKC,0.00,VWS V14.01,2014-08-22 11:18:00,
2014-08-22 06:23:00,75.4,70.6,30.06,SSE,158,0.0,0.0,85,0.00,,SKC,0.00,VWS V14.01,2014-08-22 11:23:00,
2014-08-22 06:28:00,75.2,70.7,30.06,SSE,158,0.0,0.0,86,0.00,,SKC,0.00,VWS V14.01,2014-08-22 11:28:00,
2014-08-22 06:33:00,75.0,70.9,30.06,SSE,158,0.0,0.0,87,0.00,,SKC,0.00,VWS V14.01,2014-08-22 11:33:00,
2014-08-22 06:38:00,74.8,70.7,30.06,SSE,158,0.0,0.0,87,0.00,,SKC,0.00,VWS V14.01,2014-08-22 11:38:00,
2014-08-22 06:43:00,74.8,70.7,30.06,SE,135,0.0,0.0,87,0.00,,SKC,0.00,VWS V14.01,2014-08-22 11:43:00,
2014-08-22 06:48:00,75.0,71.2,30.06,SE,135,0.0,0.0,88,0.00,,SKC,0.00,VWS V14.01,2014-08-22 11:48:00,
2014-08-22 06:53:00,75.0,71.2,30.06,SE,135,0.0,0.0,88,0.00,,SKC,0.00,VWS V14.01,2014-08-22 11:53:00,
2014-08-22 06:58:00,74.8,71.1,30.06,SE,135,0.0,0.0,88,0.00,,SKC,0.00,VWS V14.01,2014-08-22 11:58:00,
2014-08-22 07:03:00,74.8,71.1,30.06,SE,135,0.0,0.0,88,0.00,,SKC,0.00,VWS V14.01,2014-08-22 12:03:00,
2014-08-22 07:08:00,75.0,71.2,30.06,SE,135,0.0,0.0,88,0.00,,SKC,0.00,VWS V14.01,2014-08-22 12:08:00,
2014-08-22 07:13:00,75.2,71.4,30.06,SE,135,0.0,0.0,88,0.00,,SKC,0.00,VWS V14.01,2014-08-22 12:13:00,
2014-08-22 07:18:00,75.6,71.8,30.06,SE,135,0.0,0.0,88,0.00,,SKC,0.00,VWS V14.01,2014-08-22 12:18:00,
2014-08-22 07:23:00,75.7,71.9,30.06,SE,135,0.0,0.0,88,0.00,,SKC,0.00,VWS V14.01,2014-08-22 12:23:00,
2014-08-22 07:28:00,76.3,72.5,30.09,SE,135,0.0,0.0,88,0.00,,SKC,0.00,VWS V14.01,2014-08-22 12:28:00,
2014-08-22 07:33:00,76.3,72.5,30.09,SSE,158,0.0,0.0,88,0.00,,SKC,0.00,VWS V14.01,2014-08-22 12:33:00,
2014-08-22 07:38:00,76.6,72.8,30.09,SSE,158,0.0,0.0,88,0.00,,SKC,0.00,VWS V14.01,2014-08-22 12:38:00,
2014-08-22 07:43:00,76.8,73.0,30.09,SSE,158,0.0,0.0,88,0.00,,SKC,0.00,VWS V14.01,2014-08-22 12:43:00,
2014-08-22 07:48:00,77.0,72.8,30.09,SSE,158,0.0,0.0,87,0.00,,SKC,0.00,VWS V14.01,2014-08-22 12:48:00,
2014-08-22 07:53:00,77.4,73.2,30.09,ESE,112,0.0,0.0,87,0.00,,SKC,0.00,VWS V14.01,2014-08-22 12:53:00,
2014-08-22 07:58:00,77.5,73.4,30.12,ESE,112,0.0,0.0,87,0.00,,SKC,0.00,VWS V14.01,2014-08-22 12:58:00,
2014-08-22 08:03:00,77.9,73.4,30.12,ESE,112,0.0,0.0,86,0.00,,SKC,0.00,VWS V14.01,2014-08-22 13:03:00,
2014-08-22 08:08:00,78.1,73.6,30.12,ESE,112,0.0,0.0,86,0.00,,SKC,0.00,VWS V14.01,2014-08-22 13:08:00,
2014-08-22 08:13:00,78.6,74.1,30.09,SE,135,0.0,0.0,86,0.00,,SKC,0.00,VWS V14.01,2014-08-22 13:13:00,
2014-08-22 08:18:00,79.0,74.1,30.09,SSE,158,0.0,0.0,85,0.00,,SKC,0.00,VWS V14.01,2014-08-22 13:18:00,
2014-08-22 08:23:00,79.3,74.4,30.09,East,90,0.0,0.0,85,0.00,,SKC,0.00,VWS V14.01,2014-08-22 13:23:00,
2014-08-22 08:28:00,79.7,74.8,30.12,SE,135,0.0,0.0,85,0.00,,SKC,0.00,VWS V14.01,2014-08-22 13:28:00,
2014-08-22 08:33:00,80.1,74.8,30.12,WSW,248,0.0,0.0,84,0.00,,SKC,0.00,VWS V14.01,2014-08-22 13:33:00,
2014-08-22 08:38:00,80.4,74.8,30.12,South,180,0.0,0.0,83,0.00,,SKC,0.00,VWS V14.01,2014-08-22 13:38:00,
2014-08-22 08:43:00,80.8,75.1,30.12,SSE,158,0.0,0.0,83,0.00,,SKC,0.00,VWS V14.01,2014-08-22 13:43:00,
2014-08-22 08:48:00,81.0,74.9,30.12,SE,135,0.0,0.0,82,0.00,,SKC,0.00,VWS V14.01,2014-08-22 13:48:00,
2014-08-22 08:53:00,81.3,74.9,30.12,WSW,248,0.0,0.0,81,0.00,,SKC,0.00,VWS V14.01,2014-08-22 13:53:00,
2014-08-22 08:58:00,81.9,75.5,30.12,South,180,0.0,0.0,81,0.00,,SKC,0.00,VWS V14.01,2014-08-22 13:58:00,
2014-08-22 09:03:00,82.0,75.3,30.12,West,270,0.0,0.0,80,0.00,,SKC,0.00,VWS V14.01,2014-08-22 14:03:00,
2014-08-22 09:08:00,82.4,75.2,30.12,SSW,202,0.0,0.0,79,0.00,,SKC,0.00,VWS V14.01,2014-08-22 14:08:00,
2014-08-22 09:13:00,82.9,75.4,30.12,SW,225,0.0,0.0,78,0.00,,SKC,0.00,VWS V14.01,2014-08-22 14:13:00,
2014-08-22 09:18:00,83.3,75.3,30.12,East,90,0.0,0.0,77,0.00,,SKC,0.00,VWS V14.01,2014-08-22 14:18:00,
2014-08-22 09:23:00,83.7,75.3,30.12,West,270,0.0,0.0,76,0.00,,SKC,0.00,VWS V14.01,2014-08-22 14:23:00,
2014-08-22 09:28:00,83.8,75.5,30.12,West,270,0.0,0.0,76,0.00,,SKC,0.00,VWS V14.01,2014-08-22 14:28:00,
2014-08-22 09:33:00,84.2,75.0,30.12,WSW,248,0.0,0.0,74,0.00,,SKC,0.00,VWS V14.01,2014-08-22 14:33:00,
2014-08-22 09:38:00,84.6,74.5,30.12,WNW,292,0.0,0.0,72,0.00,,SKC,0.00,VWS V14.01,2014-08-22 14:38:00,
2014-08-22 09:43:00,84.9,74.9,30.12,WSW,248,0.0,0.0,72,0.00,,SKC,0.00,VWS V14.01,2014-08-22 14:43:00,
2014-08-22 09:48:00,85.3,75.7,30.12,SW,225,0.0,0.0,73,0.00,,SKC,0.00,VWS V14.01,2014-08-22 14:48:00,
2014-08-22 09:53:00,85.8,75.8,30.12,SSW,202,0.0,0.0,72,0.00,,SKC,0.00,VWS V14.01,2014-08-22 14:53:00,
2014-08-22 09:58:00,86.2,75.7,30.12,WSW,248,0.0,0.0,71,0.00,,SKC,0.00,VWS V14.01,2014-08-22 14:58:00,
2014-08-22 10:03:00,86.2,75.7,30.12,WNW,292,0.0,0.0,71,0.00,,SKC,0.00,VWS V14.01,2014-08-22 15:03:00,
2014-08-22 10:08:00,86.5,74.3,30.12,NW,315,0.0,0.0,67,0.00,,SKC,0.00,VWS V14.01,2014-08-22 15:08:00,
2014-08-22 10:13:00,86.9,74.2,30.12,NNW,338,0.0,0.0,66,0.00,,SKC,0.00,VWS V14.01,2014-08-22 15:13:00,
2014-08-22 10:18:00,87.1,75.2,30.12,WSW,248,0.0,0.0,68,0.00,,SKC,0.00,VWS V14.01,2014-08-22 15:18:00,
2014-08-22 10:23:00,87.4,74.7,30.12,WSW,248,0.0,0.0,66,0.00,,SKC,0.00,VWS V14.01,2014-08-22 15:23:00,
2014-08-22 10:28:00,87.4,74.7,30.12,WSW,248,0.0,0.0,66,0.00,,SKC,0.00,VWS V14.01,2014-08-22 15:28:00,
2014-08-22 10:33:00,87.8,74.6,30.12,NNW,338,0.0,0.0,65,0.00,,SKC,0.00,VWS V14.01,2014-08-22 15:33:00,
2014-08-22 10:38:00,88.7,75.0,30.12,WSW,248,0.0,0.0,64,0.00,,SKC,0.00,VWS V14.01,2014-08-22 15:38:00,
2014-08-22 10:43:00,89.2,74.5,30.12,West,270,0.0,0.0,62,0.00,,SKC,0.00,VWS V14.01,2014-08-22 15:43:00,
2014-08-22 10:48:00,89.4,73.2,30.12,West,270,0.0,0.0,59,0.00,,SKC,0.00,VWS V14.01,2014-08-22 15:48:00,
2014-08-22 10:53:00,90.5,74.2,30.12,WSW,248,0.0,0.0,59,0.00,,SKC,0.00,VWS V14.01,2014-08-22 15:53:00,
2014-08-22 10:58:00,90.9,73.5,30.09,West,270,1.1,4.5,57,0.00,,SKC,0.00,VWS V14.01,2014-08-22 15:58:00,
2014-08-22 11:03:00,92.7,74.7,30.09,South,180,0.0,0.0,56,0.00,,SKC,0.00,VWS V14.01,2014-08-22 16:03:00,
2014-08-22 11:08:00,93.7,75.7,30.09,SW,225,0.0,0.0,56,0.00,,SKC,0.00,VWS V14.01,2014-08-22 16:08:00,
2014-08-22 11:13:00,94.5,73.6,30.12,SW,225,0.0,0.0,51,0.00,,SKC,0.00,VWS V14.01,2014-08-22 16:13:00,
2014-08-22 11:18:00,95.4,76.1,30.12,WSW,248,0.0,0.0,54,0.00,,SKC,0.00,VWS V14.01,2014-08-22 16:18:00,
2014-08-22 11:23:00,96.4,74.8,30.12,SSW,202,0.0,0.0,50,0.00,,SKC,0.00,VWS V14.01,2014-08-22 16:23:00,
2014-08-22 11:28:00,96.6,74.9,30.12,WNW,292,0.0,0.0,50,0.00,,SKC,0.00,VWS V14.01,2014-08-22 16:28:00,
2014-08-22 11:33:00,96.1,72.6,30.12,West,270,0.0,0.0,47,0.00,,SKC,0.00,VWS V14.01,2014-08-22 16:33:00,
2014-08-22 11:38:00,95.5,71.5,30.12,NW,315,0.0,0.0,46,0.00,,SKC,0.00,VWS V14.01,2014-08-22 16:38:00,
2014-08-22 11:43:00,95.2,71.8,30.12,NNE,22,0.0,0.0,47,0.00,,SKC,0.00,VWS V14.01,2014-08-22 16:43:00,
2014-08-22 11:48:00,95.4,73.8,30.12,WNW,292,0.0,0.0,50,0.00,,SKC,0.00,VWS V14.01,2014-08-22 16:48:00,
2014-08-22 11:53:00,95.4,72.6,30.12,NW,315,0.0,0.0,48,0.00,,SKC,0.00,VWS V14.01,2014-08-22 16:53:00,
2014-08-22 11:58:00,94.6,72.5,30.12,ENE,68,0.0,0.0,49,0.00,,SKC,0.00,VWS V14.01,2014-08-22 16:58:00,
2014-08-22 12:03:00,94.1,73.8,30.12,SE,135,0.0,0.0,52,0.00,,SKC,0.00,VWS V14.01,2014-08-22 17:03:00,
2014-08-22 12:08:00,93.7,73.5,30.12,ESE,112,0.0,0.0,52,0.00,,SKC,0.00,VWS V14.01,2014-08-22 17:08:00,
2014-08-22 12:13:00,93.7,73.5,30.12,SE,135,0.0,0.0,52,0.00,,SKC,0.00,VWS V14.01,2014-08-22 17:13:00,
2014-08-22 12:18:00,93.6,73.3,30.12,WSW,248,0.0,0.0,52,0.00,,SKC,0.00,VWS V14.01,2014-08-22 17:18:00,
2014-08-22 12:23:00,93.7,72.9,30.12,SSW,202,0.0,0.0,51,0.00,,SKC,0.00,VWS V14.01,2014-08-22 17:23:00,
2014-08-22 12:28:00,93.0,72.8,30.12,ESE,112,0.0,0.0,52,0.00,,SKC,0.00,VWS V14.01,2014-08-22 17:28:00,
2014-08-22 12:33:00,93.4,73.7,30.12,WSW,248,0.0,0.0,53,0.00,,SKC,0.00,VWS V14.01,2014-08-22 17:33:00,
2014-08-22 12:38:00,93.4,72.0,30.12,NE,45,0.0,0.0,50,0.00,,SKC,0.00,VWS V14.01,2014-08-22 17:38:00,
2014-08-22 12:43:00,93.2,71.2,30.12,East,90,0.0,0.0,49,0.00,,SKC,0.00,VWS V14.01,2014-08-22 17:43:00,
2014-08-22 12:48:00,93.2,71.8,30.12,North,0,0.0,0.0,50,0.00,,SKC,0.00,VWS V14.01,2014-08-22 17:48:00,
2014-08-22 12:54:00,93.0,71.6,30.12,NNE,22,0.0,0.0,50,0.00,,SKC,0.00,VWS V14.01,2014-08-22 17:54:00,
2014-08-22 12:59:00,92.8,72.6,30.12,NE,45,0.0,0.0,52,0.00,,SKC,0.00,VWS V14.01,2014-08-22 17:59:00,
2014-08-22 13:04:00,92.3,72.1,30.09,WSW,248,0.0,0.0,52,0.00,,SKC,0.00,VWS V14.01,2014-08-22 18:04:00,
2014-08-22 13:09:00,92.1,73.1,30.09,South,180,0.0,0.0,54,0.00,,SKC,0.00,VWS V14.01,2014-08-22 18:09:00,
2014-08-22 13:14:00,91.9,73.5,30.09,East,90,0.0,0.0,55,0.00,,SKC,0.00,VWS V14.01,2014-08-22 18:14:00,
2014-08-22 13:19:00,91.8,73.3,30.09,ENE,68,0.0,0.0,55,0.00,,SKC,0.00,VWS V14.01,2014-08-22 18:19:00,
2014-08-22 13:24:00,91.9,74.5,30.09,East,90,0.0,0.0,57,0.00,,SKC,0.00,VWS V14.01,2014-08-22 18:24:00,
2014-08-22 13:29:00,92.3,74.3,30.09,WSW,248,0.0,0.0,56,0.00,,SKC,0.00,VWS V14.01,2014-08-22 18:29:00,